TimeEST,TemperatureF,Dew PointF,Humidity,Sea Level PressureIn,VisibilityMPH,Wind Direction,Wind SpeedMPH,Gust SpeedMPH,PrecipitationIn,Events,Conditions,WindDirDegrees,DateUTC
12:15 AM,32.0,28.4,87,29.61,7.0,West,11.5,21.9,N/A,,Overcast,260,2012-12-27 05:15:00
12:35 AM,30.2,28.4,93,29.62,3.0,West,12.7,20.7,N/A,Snow,Light Snow,280,2012-12-27 05:35:00
12:55 AM,30.2,26.6,86,29.63,10.0,West,13.8,21.9,N/A,,Overcast,270,2012-12-27 05:55:00
1:15 AM,30.2,26.6,86,29.65,4.0,WNW,17.3,24.2,N/A,,Overcast,290,2012-12-27 06:15:00
1:35 AM,30.2,24.8,80,29.66,4.0,West,12.7,23.0,N/A,,Haze,280,2012-12-27 06:35:00
1:55 AM,28.4,26.6,93,29.67,3.0,West,11.5,19.6,N/A,,Overcast,280,2012-12-27 06:55:00
2:15 AM,28.4,24.8,86,29.68,10.0,WNW,13.8,25.3,N/A,,Overcast,300,2012-12-27 07:15:00
2:35 AM,28.4,23.0,80,29.70,7.0,WNW,20.7,31.1,N/A,,Overcast,290,2012-12-27 07:35:00
2:55 AM,28.4,21.2,74,29.71,10.0,West,10.4,25.3,N/A,,Overcast,280,2012-12-27 07:55:00
3:15 AM,26.6,21.2,80,29.73,10.0,WNW,12.7,25.3,N/A,,Overcast,290,2012-12-27 08:15:00
3:35 AM,26.6,21.2,80,29.73,10.0,WNW,12.7,21.9,N/A,,Overcast,290,2012-12-27 08:35:00
3:55 AM,26.6,21.2,80,29.73,10.0,West,12.7,23.0,N/A,,Overcast,280,2012-12-27 08:55:00
4:15 AM,26.6,21.2,80,29.73,4.0,West,4.6,-,N/A,,Overcast,280,2012-12-27 09:15:00
4:35 AM,26.6,21.2,80,29.74,2.5,WNW,12.7,21.9,N/A,Snow,Light Snow,300,2012-12-27 09:35:00
4:55 AM,26.6,23.0,86,29.74,2.5,West,8.1,-,N/A,Snow,Light Snow,280,2012-12-27 09:55:00
5:15 AM,26.6,21.2,80,29.75,2.0,West,15.0,24.2,N/A,Snow,Light Snow,280,2012-12-27 10:15:00
5:35 AM,24.8,23.0,93,29.77,1.2,West,9.2,18.4,N/A,Snow,Light Snow,280,2012-12-27 10:35:00
5:55 AM,24.8,21.2,86,29.79,2.5,WNW,10.4,20.7,N/A,,Overcast,300,2012-12-27 10:55:00
6:15 AM,24.8,21.2,86,29.79,3.0,WNW,12.7,28.8,N/A,Snow,Light Snow,290,2012-12-27 11:15:00
6:35 AM,24.8,21.2,86,29.81,5.0,NW,8.1,25.3,N/A,,Overcast,310,2012-12-27 11:35:00
6:55 AM,24.8,21.2,86,29.82,4.0,West,16.1,26.5,N/A,,Overcast,280,2012-12-27 11:55:00
7:15 AM,24.8,21.2,86,29.84,3.0,WNW,12.7,23.0,N/A,,Overcast,300,2012-12-27 12:15:00
7:35 AM,24.8,21.2,86,29.84,3.0,WNW,10.4,21.9,N/A,,Overcast,290,2012-12-27 12:35:00
7:55 AM,24.8,21.2,86,29.86,3.0,WNW,13.8,25.3,N/A,,Overcast,300,2012-12-27 12:55:00
8:15 AM,24.8,21.2,86,29.87,4.0,WNW,13.8,26.5,N/A,,Overcast,300,2012-12-27 13:15:00
8:35 AM,23.0,21.2,93,29.88,4.0,West,9.2,19.6,N/A,,Overcast,270,2012-12-27 13:35:00
8:55 AM,23.0,21.2,93,29.88,3.0,NW,6.9,23.0,N/A,,Overcast,320,2012-12-27 13:55:00
9:15 AM,24.8,21.2,86,29.90,4.0,WNW,9.2,-,N/A,,Overcast,290,2012-12-27 14:15:00
9:35 AM,24.8,19.4,80,29.92,3.0,WNW,9.2,18.4,N/A,,Haze,300,2012-12-27 14:35:00
9:55 AM,24.8,19.4,80,29.93,4.0,NNW,11.5,20.7,N/A,,Haze,330,2012-12-27 14:55:00
10:15 AM,24.8,19.4,80,29.94,5.0,WNW,12.7,21.9,N/A,,Haze,290,2012-12-27 15:15:00
10:35 AM,24.8,19.4,80,29.93,5.0,WNW,9.2,16.1,N/A,,Haze,290,2012-12-27 15:35:00
10:55 AM,26.6,19.4,74,29.93,5.0,West,17.3,31.1,N/A,,Haze,280,2012-12-27 15:55:00
11:15 AM,26.6,19.4,74,29.92,7.0,WNW,12.7,21.9,N/A,,Overcast,300,2012-12-27 16:15:00
11:35 AM,26.6,19.4,74,29.92,4.0,WNW,9.2,20.7,N/A,,Haze,300,2012-12-27 16:35:00
11:55 AM,26.6,19.4,74,29.92,3.0,WNW,13.8,17.3,N/A,,Haze,300,2012-12-27 16:55:00
12:15 PM,24.8,19.4,80,29.91,4.0,WNW,11.5,23.0,N/A,,Haze,300,2012-12-27 17:15:00
12:35 PM,24.8,17.6,74,29.92,4.0,WNW,15.0,21.9,N/A,,Haze,290,2012-12-27 17:35:00
12:55 PM,24.8,19.4,80,29.93,4.0,WNW,11.5,20.7,N/A,,Haze,290,2012-12-27 17:55:00
1:15 PM,23.0,19.4,86,29.93,4.0,WNW,10.4,18.4,N/A,,Haze,300,2012-12-27 18:15:00
1:35 PM,23.0,19.4,86,29.93,4.0,WNW,9.2,19.6,N/A,,Haze,300,2012-12-27 18:35:00
2:15 PM,23.0,19.4,86,29.93,4.0,WNW,6.9,19.6,N/A,,Haze,300,2012-12-27 19:15:00
2:35 PM,23.0,19.4,86,29.94,5.0,WNW,4.6,-,N/A,,Haze,300,2012-12-27 19:35:00
2:55 PM,23.0,19.4,86,29.95,5.0,WNW,8.1,17.3,N/A,,Overcast,290,2012-12-27 19:55:00
3:15 PM,23.0,17.6,80,29.96,10.0,WNW,8.1,-,N/A,,Overcast,290,2012-12-27 20:15:00
3:35 PM,23.0,17.6,80,29.96,10.0,WNW,4.6,-,N/A,,Overcast,300,2012-12-27 20:35:00
4:15 PM,23.0,17.6,80,29.98,10.0,WNW,6.9,-,N/A,,Overcast,300,2012-12-27 21:15:00
4:35 PM,23.0,17.6,80,29.99,10.0,WNW,6.9,-,N/A,,Overcast,290,2012-12-27 21:35:00
4:55 PM,23.0,17.6,80,30.01,10.0,West,9.2,-,N/A,,Overcast,280,2012-12-27 21:55:00
5:15 PM,23.0,19.4,86,30.01,10.0,West,5.8,-,N/A,,Overcast,280,2012-12-27 22:15:00
5:35 PM,23.0,17.6,80,30.02,10.0,WNW,4.6,-,N/A,,Overcast,300,2012-12-27 22:35:00
5:55 PM,23.0,17.6,80,30.02,10.0,WNW,6.9,-,N/A,,Overcast,300,2012-12-27 22:55:00
6:15 PM,23.0,17.6,80,30.03,10.0,WNW,9.2,-,N/A,,Overcast,300,2012-12-27 23:15:00
6:35 PM,23.0,17.6,80,30.03,10.0,WNW,3.5,-,N/A,,Overcast,300,2012-12-27 23:35:00
6:55 PM,23.0,17.6,80,30.04,10.0,West,5.8,-,N/A,,Overcast,260,2012-12-27 23:55:00
7:15 PM,23.0,19.4,86,30.05,10.0,WNW,5.8,-,N/A,,Overcast,290,2012-12-28 00:15:00
7:35 PM,23.0,19.4,86,30.05,10.0,WNW,3.5,-,N/A,,Overcast,300,2012-12-28 00:35:00
8:15 PM,23.0,19.4,86,30.05,10.0,NW,5.8,-,N/A,,Overcast,310,2012-12-28 01:15:00
8:35 PM,23.0,19.4,86,30.05,10.0,WNW,4.6,-,N/A,,Overcast,300,2012-12-28 01:35:00
8:55 PM,23.0,19.4,86,30.05,10.0,NW,5.8,-,N/A,,Overcast,320,2012-12-28 01:55:00
9:15 PM,23.0,19.4,86,30.04,10.0,WNW,3.5,-,N/A,,Overcast,290,2012-12-28 02:15:00
9:35 PM,23.0,19.4,86,30.05,10.0,NW,3.5,-,N/A,,Overcast,310,2012-12-28 02:35:00
9:55 PM,23.0,19.4,86,30.05,10.0,West,3.5,-,N/A,,Overcast,280,2012-12-28 02:55:00
10:15 PM,23.0,19.4,86,30.06,10.0,West,4.6,-,N/A,,Overcast,280,2012-12-28 03:15:00
10:35 PM,23.0,19.4,86,30.05,10.0,Calm,Calm,-,N/A,,Overcast,0,2012-12-28 03:35:00
10:55 PM,23.0,19.4,86,30.06,10.0,West,3.5,-,N/A,,Overcast,260,2012-12-28 03:55:00
11:15 PM,23.0,19.4,86,30.05,10.0,NW,4.6,-,N/A,,Overcast,310,2012-12-28 04:15:00
11:35 PM,23.0,19.4,86,30.06,10.0,NW,4.6,-,N/A,,Overcast,320,2012-12-28 04:35:00
11:55 PM,23.0,19.4,86,30.05,10.0,Calm,Calm,-,N/A,,Overcast,0,2012-12-28 04:55:00